| time (UTC) | temp F | wind direction | speed MPH | gust MPH | rain 1hr in | rain 24hr in | rain mn in | humidity % | barometer mb |
| 20260505124547 | 65 | 94 | 1.0 | 0.0 | 0.00 | 0.00 | 0.00 | 100 | 1008.7 |
| 20260505123047 | 63 | 24 | 2.0 | 0.0 | 0.00 | 0.00 | 0.00 | 100 | 1008.8 |
| 20260505121538 | 61 | 66 | 3.0 | 0.0 | 0.00 | 0.00 | 0.00 | 100 | 1008.9 |
| 20260505120036 | 59 | 76 | 2.0 | 0.0 | 0.00 | 0.00 | 0.00 | 100 | 1008.8 |
| 20260505114530 | 56 | 34 | 2.0 | 0.0 | 0.00 | 0.00 | 0.00 | 100 | 1008.9 |
| 20260505113025 | 55 | 360 | 2.0 | 0.0 | 0.00 | 0.00 | 0.00 | 100 | 1008.9 |
| 20260505111521 | 54 | 10 | 2.0 | 0.0 | 0.00 | 0.00 | 0.00 | 100 | 1008.6 |
| 20260505101505 | 52 | 94 | 3.0 | 0.0 | 0.00 | 0.00 | 0.00 | 100 | 1008.2 |
| 20260505100059 | 52 | 277 | 3.0 | 0.0 | 0.00 | 0.00 | 0.00 | 100 | 1008.4 |
| 20260505094555 | 52 | 138 | 3.0 | 0.0 | 0.00 | 0.00 | 0.00 | 100 | 1008.3 |
| 20260505093050 | 51 | 346 | 1.0 | 0.0 | 0.00 | 0.00 | 0.00 | 100 | 1008.2 |
| 20260505091605 | 51 | 164 | 2.0 | 0.0 | 0.00 | 0.00 | 0.00 | 100 | 1008.0 |
| 20260505090045 | 52 | 41 | 4.0 | 0.0 | 0.00 | 0.00 | 0.00 | 100 | 1007.9 |
| 20260505084538 | 52 | 91 | 4.0 | 0.0 | 0.00 | 0.00 | 0.00 | 100 | 1007.8 |
| 20260505083035 | 53 | 46 | 5.0 | 0.0 | 0.00 | 0.00 | 0.00 | 100 | 1007.9 |
| 20260505081530 | 53 | 32 | 4.0 | 0.0 | 0.00 | 0.00 | 0.00 | 100 | 1007.9 |
| 20260505080025 | 53 | 42 | 4.0 | 0.0 | 0.00 | 0.00 | 0.00 | 100 | 1007.9 |
| 20260505074520 | 53 | 47 | 4.0 | 0.0 | 0.00 | 0.00 | 0.00 | 100 | 1007.6 |
| 20260505073016 | 54 | 31 | 4.0 | 0.0 | 0.00 | 0.00 | 0.00 | 100 | 1007.5 |
| 20260505071511 | 54 | 44 | 4.0 | 0.0 | 0.00 | 0.00 | 0.00 | 100 | 1007.4 |
| 20260505070007 | 54 | 52 | 4.0 | 0.0 | 0.00 | 0.00 | 0.00 | 100 | 1007.3 |
| 20260505064503 | 55 | 87 | 1.0 | 0.0 | 0.00 | 0.00 | 0.00 | 100 | 1007.3 |
| 20260505063138 | 55 | 351 | 6.0 | 0.0 | 0.00 | 0.00 | 0.00 | 100 | 1007.5 |
| 20260505061627 | 55 | 116 | 5.0 | 0.0 | 0.00 | 0.00 | 0.00 | 100 | 1007.5 |
| 20260505060059 | 55 | 28 | 3.0 | 0.0 | 0.00 | 0.00 | 0.00 | 100 | 1007.8 |
| 20260505054546 | 55 | 94 | 2.0 | 0.0 | 0.00 | 0.00 | 0.00 | 100 | 1007.7 |
| 20260505053044 | 55 | 27 | 3.0 | 0.0 | 0.00 | 0.00 | 0.00 | 100 | 1007.8 |
| 20260505051556 | 55 | 32 | 3.0 | 0.0 | 0.00 | 0.00 | 0.00 | 100 | 1007.9 |
| 20260505041519 | 56 | 325 | 2.0 | 0.0 | 0.00 | 0.00 | 0.00 | 100 | 1007.7 |
| 20260505040015 | 57 | 325 | 2.0 | 0.0 | 0.00 | 0.00 | 0.00 | 100 | 1007.6 |
| 20260505034514 | 58 | 257 | 0.0 | 0.0 | 0.00 | 0.00 | 0.00 | 100 | 1007.4 |
| 20260505033006 | 57 | 304 | 1.0 | 0.0 | 0.00 | 0.00 | 0.00 | 100 | 1007.5 |
| 20260505031503 | 59 | 257 | 1.0 | 0.0 | 0.00 | 0.00 | 0.00 | 100 | 1007.5 |
| 20260505030100 | 58 | 256 | 1.0 | 0.0 | 0.00 | 0.00 | 0.00 | 100 | 1007.6 |
| 20260505024555 | 59 | 26 | 3.0 | 0.0 | 0.00 | 0.00 | 0.00 | 100 | 1007.2 |
| 20260505023048 | 61 | 26 | 1.0 | 0.0 | 0.00 | 0.00 | 0.00 | 100 | 1007.6 |
| 20260505021549 | 62 | 328 | 2.0 | 0.0 | 0.00 | 0.00 | 0.00 | 100 | 1007.4 |
| 20260505020040 | 64 | 97 | 2.0 | 0.0 | 0.00 | 0.00 | 0.00 | 100 | 1007.3 |
| 20260505014535 | 66 | 321 | 2.0 | 0.0 | 0.00 | 0.00 | 0.00 | 100 | 1007.2 |
| 20260505013031 | 68 | 198 | 2.0 | 0.0 | 0.00 | 0.00 | 0.00 | 100 | 1007.1 |
| 20260505011526 | 69 | 213 | 2.0 | 0.0 | 0.00 | 0.00 | 0.00 | 100 | 1007.1 |
| 20260505010023 | 70 | 194 | 7.0 | 0.0 | 0.00 | 0.00 | 0.00 | 100 | 1006.8 |
| 20260505004520 | 70 | 180 | 3.0 | 0.0 | 0.00 | 0.00 | 0.00 | 100 | 1006.9 |
| 20260505003020 | 70 | 151 | 4.0 | 0.0 | 0.00 | 0.00 | 0.00 | 100 | 1006.8 |
| 20260505001510 | 71 | 175 | 5.0 | 0.0 | 0.00 | 0.00 | 0.00 | 100 | 1006.6 |
| 20260505000006 | 71 | 194 | 5.0 | 0.0 | 0.00 | 0.00 | 0.00 | 100 | 1006.5 |
| 20260504234503 | 72 | 220 | 7.0 | 0.0 | 0.00 | 0.00 | 0.00 | 100 | 1006.5 |
| 20260504233108 | 72 | 166 | 6.0 | 0.0 | 0.00 | 0.00 | 0.00 | 100 | 1006.2 |
| 20260504231552 | 73 | 172 | 7.0 | 0.0 | 0.00 | 0.00 | 0.00 | 100 | 1006.4 |
| 20260504230055 | 73 | 192 | 9.0 | 0.0 | 0.00 | 0.00 | 0.00 | 100 | 1006.2 |
| 20260504224543 | 74 | 165 | 10.0 | 0.0 | 0.00 | 0.00 | 0.00 | 100 | 1006.2 |
| 20260504223039 | 74 | 144 | 11.0 | 0.0 | 0.00 | 0.00 | 0.00 | 100 | 1006.1 |
| 20260504221534 | 75 | 203 | 15.0 | 0.0 | 0.00 | 0.00 | 0.00 | 100 | 1006.1 |
| 20260504220030 | 75 | 169 | 12.0 | 0.0 | 0.00 | 0.00 | 0.00 | 100 | 1005.9 |
| 20260504214526 | 76 | 198 | 10.0 | 0.0 | 0.00 | 0.00 | 0.00 | 100 | 1005.9 |
| 20260504213021 | 75 | 158 | 12.0 | 0.0 | 0.00 | 0.00 | 0.00 | 100 | 1005.8 |
| 20260504211517 | 75 | 193 | 13.0 | 0.0 | 0.00 | 0.00 | 0.00 | 100 | 1006.0 |
| 20260504210013 | 76 | 209 | 12.0 | 0.0 | 0.00 | 0.00 | 0.00 | 100 | 1006.1 |
| 20260504204508 | 76 | 234 | 15.0 | 0.0 | 0.00 | 0.00 | 0.00 | 100 | 1006.1 |
| 20260504203004 | 75 | 211 | 16.0 | 0.0 | 0.00 | 0.00 | 0.00 | 100 | 1006.2 |
| 20260504201600 | 76 | 268 | 13.0 | 0.0 | 0.00 | 0.00 | 0.00 | 100 | 1006.3 |
| 20260504200055 | 75 | 209 | 13.0 | 0.0 | 0.00 | 0.00 | 0.00 | 100 | 1006.7 |
| 20260504194600 | 74 | 205 | 9.0 | 0.0 | 0.00 | 0.00 | 0.00 | 100 | 1006.9 |
| 20260504193049 | 74 | 190 | 13.0 | 0.0 | 0.00 | 0.00 | 0.00 | 100 | 1007.3 |
| 20260504191543 | 73 | 216 | 13.0 | 0.0 | 0.00 | 0.00 | 0.00 | 100 | 1007.5 |
| 20260504190059 | 74 | 257 | 12.0 | 0.0 | 0.00 | 0.00 | 0.00 | 100 | 1007.5 |
| 20260504184535 | 72 | 192 | 12.0 | 0.0 | 0.00 | 0.00 | 0.00 | 100 | 1007.8 |
| 20260504183033 | 73 | 162 | 11.0 | 0.0 | 0.00 | 0.00 | 0.00 | 100 | 1008.0 |
| 20260504181524 | 72 | 234 | 12.0 | 0.0 | 0.00 | 0.00 | 0.00 | 100 | 1008.2 |
| 20260504180020 | 72 | 224 | 17.0 | 0.0 | 0.00 | 0.00 | 0.00 | 100 | 1008.5 |
| 20260504174516 | 72 | 217 | 13.0 | 0.0 | 0.00 | 0.00 | 0.00 | 100 | 1008.8 |
| 20260504173012 | 70 | 196 | 10.0 | 0.0 | 0.00 | 0.00 | 0.00 | 100 | 1009.2 |
| 20260504171507 | 70 | 200 | 8.0 | 0.0 | 0.00 | 0.00 | 0.00 | 100 | 1009.3 |